Home > Weather > Shantou > Past weeks

Flag for China Weather for the Past 2 Weeks in Shantou, Guangdong, China

Now
66 °F

Sprinkles. Fog.


Feels Like: 66 °F
Forecast: 68 / 75 °F
Wind: 1 mph from North

Location: Shantou Airport

Current Time: Apr 30, 2016 at 11:39:17 PM

Latest Report: Apr 30, 2016 at 11:00 PM


Visibility: 3 mi

Pressure: 29.95 "Hg

Humidity: 88%

Dew Point: 63 °F

Location of ShantouLocation

Historic Weather in Shantou — Graph

°F

Shantou Temperature Yesterday

Maximum temperature yesterday: 77 °F (at 1:00 PM)
Minimum temperature yesterday: 70 °F (at 3:00 AM)
Average temperature yesterday: 73 °F

High & Low Weather Summary for the Past Weeks

 TemperatureHumidityPressure
High91 °F (Apr 27, 3:00 PM)100% (Apr 16, 7:00 AM)30.15 "Hg (Apr 16, 7:00 AM)
Low64 °F (Apr 19, 3:00 AM)43% (Apr 28, 3:00 PM)29.68 "Hg (Apr 27, 5:00 PM)
Average74 °F83%29.89 "Hg
* Reported Apr 15 10:00 PM — Apr 30 10:00 PM, Shantou, Weather by CustomWeather, © 2016

Note: Actual official high and low records may vary slightly from our data, if they occured in-between our weather recording intervals... More about our weather records

Advertising

Shantou Weather History for the Previous 24 Hours

Scroll right to see more
 ConditionsComfort  
Time TempWeatherWind HumidityBarometerVisibility
10:00 PM
Sat, Apr 30
66 °FMostly cloudy.1 mph83%29.95 "Hg5 mi
9:00 PM68 °FPassing clouds.3 mph83%29.95 "Hg4 mi
8:00 PM68 °FPassing clouds.6 mph73%29.95 "Hg5 mi
7:00 PM68 °FSprinkles. Overcast.6 mph78%29.92 "Hg5 mi
6:00 PM70 °FOvercast.6 mph60%29.92 "HgN/A
5:00 PM70 °FOvercast.8 mph57%29.89 "HgN/A
4:00 PM72 °FOvercast.10 mph50%29.89 "HgN/A
3:00 PM72 °FSprinkles. Overcast.6 mph57%29.89 "HgN/A
2:00 PM72 °FOvercast.8 mph57%29.92 "HgN/A
1:00 PM72 °FPartly sunny.3 mph53%29.92 "HgN/A
12:00 PM72 °FPartly sunny.3 mph53%29.95 "HgN/A
11:00 AM73 °FPartly sunny.6 mph53%29.95 "HgN/A
10:00 AM73 °FPartly sunny.6 mph53%29.95 "HgN/A
9:00 AM72 °FPartly sunny.3 mph69%29.98 "Hg3 mi
8:00 AM70 °FFog.No wind78%29.95 "Hg3 mi
7:00 AM68 °FFog.1 mph78%29.95 "Hg3 mi
6:00 AM68 °FPartly sunny.1 mph73%29.92 "Hg4 mi
5:00 AM68 °FClear.1 mph83%29.95 "Hg4 mi
4:00 AM68 °FClear.No wind83%29.92 "Hg4 mi
3:00 AM70 °FClear.1 mph78%29.95 "Hg4 mi
2:00 AM68 °FClear.No wind73%29.95 "Hg4 mi
1:00 AM68 °FPassing clouds.1 mph73%29.98 "Hg4 mi
12:00 AM70 °FPassing clouds.1 mph64%29.98 "Hg5 mi
11:00 PM
Fri, Apr 29
72 °FPassing clouds.3 mph65%29.98 "Hg5 mi
Weather by CustomWeather, © 2016

See weather overviewHow to use our weather pages